Eagle River, WI

9:26 PM CST on February 05, 2016 (GMT -0600)
Eagle River Union

Weather History for KEGV - August, 2012

Change the Weather History Date:

Thursday, August 30, 2012

  Actual Average Record
Temperature  
Mean Temperature 78 °F -  
Max Temperature 89 °F 75 °F 89 °F (2012)
Min Temperature 66 °F 54 °F 37 °F (1999)
Cooling Degree Days 12    
Growing Degree Days 28 (Base 50)    
Moisture  
Dew Point 59 °F    
Average Humidity 62    
Maximum Humidity 83    
Minimum Humidity 29    
Precipitation  
Precipitation 0.00 in - - ()
Sea Level Pressure  
Sea Level Pressure 29.86 in    
Wind  
Wind Speed 6 mph (SW)    
Max Wind Speed 20 mph    
Max Gust Speed 29 mph    
Visibility 10 miles    
Events      
Averages and records for this station are not official NWS values.
T = Trace of Precipitation, MM = Missing Value Source: NWS Daily Summary

Daily Weather History Graph

Daily Weather History Graph

Search for Another Location

Airport or City:

Trip Planner

Search our weather history database for the weather conditions in past years. The results will help you decide how hot, cold, wet, or windy it might be!

Date:

Astronomy

Aug. 30, 2012 Rise Set
Actual Time 6:16 AM CDT 7:38 PM CDT
Civil Twilight 5:45 AM CDT 8:08 PM CDT
Nautical Twilight 5:07 AM CDT 8:46 PM CDT
Astronomical Twilight 4:27 AM CDT 9:26 PM CDT
Moon 6:50 PM CDT (8/30) 5:16 AM CDT (8/30)
Length of Visible Light 14h 23m
Length of Day
13h 22m
Waxing Gibbous, 99% of the Moon is Illuminated
Aug 30
Waxing Gibbous
Aug 31
Full
Sep 8
Last Quarter
Sep 15
New
Sep 22
First Quarter

Hourly Weather History & Observations

Time (CDT) Temp. Heat Index Dew Point Humidity Pressure Visibility Wind Dir Wind Speed Gust Speed Precip Events Conditions
12:15 AM 66.2 °F - 60.8 °F 83% 29.94 in 10.0 mi South 3.5 mph - N/A   Clear
12:35 AM 66.2 °F - 60.8 °F 83% 29.94 in 10.0 mi South 3.5 mph - N/A   Clear
12:55 AM 66.2 °F - 60.8 °F 83% 29.93 in 10.0 mi Calm Calm - N/A   Clear
1:15 AM 66.2 °F - 60.8 °F 83% 29.93 in 10.0 mi South 3.5 mph - N/A   Clear
1:35 AM 66.2 °F - 60.8 °F 83% 29.93 in 10.0 mi Calm Calm - N/A   Clear
1:55 AM 68.0 °F - 60.8 °F 78% 29.92 in 10.0 mi SSW 3.5 mph - N/A   Clear
2:15 AM 68.0 °F - 60.8 °F 78% 29.92 in 10.0 mi SSW 4.6 mph - N/A   Clear
2:55 AM 68.0 °F - 60.8 °F 78% 29.90 in 10.0 mi South 4.6 mph - N/A   Clear
3:15 AM 68.0 °F - 60.8 °F 78% 29.90 in 10.0 mi SSW 5.8 mph - N/A   Clear
3:35 AM 68.0 °F - 60.8 °F 78% 29.89 in 10.0 mi SSW 5.8 mph - N/A   Clear
3:55 AM 68.0 °F - 60.8 °F 78% 29.89 in 10.0 mi SSW 4.6 mph - N/A   Clear
4:15 AM 69.8 °F - 60.8 °F 73% 29.89 in 10.0 mi SSW 5.8 mph - N/A   Clear
4:35 AM 68.0 °F - 60.8 °F 78% 29.88 in 10.0 mi SSW 5.8 mph - N/A   Clear
4:55 AM 68.0 °F - 60.8 °F 78% 29.88 in 10.0 mi SSW 6.9 mph - N/A   Clear
5:15 AM 68.0 °F - 60.8 °F 78% 29.87 in 10.0 mi SSW 5.8 mph - N/A   Clear
5:35 AM 68.0 °F - 60.8 °F 78% 29.87 in 10.0 mi SSW 6.9 mph - N/A   Clear
5:55 AM 68.0 °F - 59.0 °F 73% 29.87 in 10.0 mi SSW 9.2 mph - N/A   Clear
6:15 AM 68.0 °F - 59.0 °F 73% 29.87 in 10.0 mi SSW 6.9 mph - N/A   Clear
6:35 AM 68.0 °F - 59.0 °F 73% 29.87 in 10.0 mi SSW 6.9 mph - N/A   Clear
6:55 AM 68.0 °F - 59.0 °F 73% 29.87 in 10.0 mi SW 9.2 mph - N/A   Clear
7:35 AM 69.8 °F - 59.0 °F 68% 29.87 in 10.0 mi SSW 6.9 mph - N/A   Clear
7:55 AM 69.8 °F - 59.0 °F 68% 29.88 in 10.0 mi SW 6.9 mph - N/A   Clear
8:15 AM 71.6 °F - 59.0 °F 64% 29.87 in 10.0 mi SSW 6.9 mph - N/A   Clear
8:35 AM 71.6 °F - 60.8 °F 69% 29.86 in 10.0 mi SW 10.4 mph - N/A   Clear
8:55 AM 73.4 °F - 59.0 °F 61% 29.86 in 10.0 mi SW 10.4 mph 18.4 mph N/A   Scattered Clouds
9:15 AM 75.2 °F - 60.8 °F 61% 29.85 in 10.0 mi SSW 10.4 mph 18.4 mph N/A   Clear
9:35 AM 77.0 °F - 59.0 °F 54% 29.85 in 10.0 mi SW 12.7 mph 21.9 mph N/A   Clear
10:15 AM 78.8 °F - 59.0 °F 51% 29.86 in 10.0 mi SW 13.8 mph 20.7 mph N/A   Clear
10:35 AM 80.6 °F 81.1 °F 59.0 °F 48% 29.86 in 10.0 mi WSW 16.1 mph 23.0 mph N/A   Clear
10:55 AM 80.6 °F 81.1 °F 59.0 °F 48% 29.86 in 10.0 mi SW 13.8 mph 24.2 mph N/A   Clear
11:15 AM 82.4 °F 82.0 °F 57.2 °F 42% 29.85 in 10.0 mi WSW 16.1 mph 23.0 mph N/A   Clear
11:35 AM 82.4 °F 82.5 °F 59.0 °F 45% 29.84 in 10.0 mi SSW 13.8 mph 19.6 mph N/A   Clear
11:55 AM 80.6 °F 81.1 °F 59.0 °F 48% 29.84 in 10.0 mi SW 8.1 mph 20.7 mph N/A   Clear
12:15 PM 80.6 °F 80.8 °F 57.2 °F 45% 29.83 in 10.0 mi WSW 13.8 mph 18.4 mph N/A   Clear
12:35 PM 82.4 °F 82.0 °F 57.2 °F 42% 29.82 in 10.0 mi SW 11.5 mph 16.1 mph N/A   Clear
12:55 PM 82.4 °F 81.7 °F 55.4 °F 39% 29.82 in 10.0 mi West 12.7 mph 20.7 mph N/A   Unknown
1:15 PM 82.4 °F 81.7 °F 55.4 °F 39% 29.81 in 10.0 mi SW 8.1 mph - N/A   Unknown
1:35 PM 82.4 °F 81.7 °F 55.4 °F 39% 29.80 in 10.0 mi SW 8.1 mph - N/A   Clear
2:15 PM 82.4 °F 81.7 °F 55.4 °F 39% 29.80 in 10.0 mi SW 9.2 mph 16.1 mph N/A   Clear
2:35 PM 86.0 °F 84.9 °F 57.2 °F 37% 29.79 in 10.0 mi SW 8.1 mph - N/A   Clear
2:55 PM 87.8 °F 86.1 °F 55.4 °F 33% 29.78 in 10.0 mi SW 13.8 mph 19.6 mph N/A   Clear
3:15 PM 86.0 °F 84.5 °F 55.4 °F 35% 29.78 in 10.0 mi SW 10.4 mph 20.7 mph N/A   Clear
3:35 PM 86.0 °F 84.5 °F 55.4 °F 35% 29.77 in 10.0 mi SSW 10.4 mph - N/A   Clear
3:55 PM 87.8 °F 85.7 °F 53.6 °F 31% 29.81 in 10.0 mi WSW 19.6 mph 28.8 mph N/A   Clear
4:15 PM 87.8 °F 86.1 °F 55.4 °F 33% 29.81 in 10.0 mi WSW 16.1 mph 21.9 mph N/A   Clear
4:35 PM 89.6 °F 87.7 °F 55.4 °F 31% 29.81 in 10.0 mi WSW 11.5 mph - N/A   Clear
5:15 PM 89.6 °F 87.3 °F 53.6 °F 29% 29.81 in 10.0 mi WNW 6.9 mph - N/A   Clear
5:55 PM 84.2 °F 83.0 °F 55.4 °F 37% 29.82 in 10.0 mi West 6.9 mph - N/A   Clear
6:15 PM 80.6 °F 81.5 °F 60.8 °F 51% 29.82 in 10.0 mi NNW 9.2 mph 16.1 mph N/A   Clear
6:35 PM 78.8 °F - 60.8 °F 54% 29.82 in 10.0 mi NW 4.6 mph - N/A   Clear
6:55 PM 78.8 °F - 60.8 °F 54% 29.83 in 10.0 mi WNW 3.5 mph - N/A   Clear
7:15 PM 77.0 °F - 62.6 °F 61% 29.84 in 10.0 mi Calm Calm - N/A   Clear
7:35 PM 73.4 °F - 62.6 °F 69% 29.84 in 10.0 mi SW 3.5 mph - N/A   Clear
7:55 PM 71.6 °F - 62.6 °F 73% 29.84 in 10.0 mi Calm Calm - N/A   Clear
8:15 PM 71.6 °F - 62.6 °F 73% 29.85 in 10.0 mi Calm Calm - N/A   Clear
8:55 PM 71.6 °F - 62.6 °F 73% 29.84 in 10.0 mi Calm Calm - N/A   Clear
9:15 PM 69.8 °F - 62.6 °F 78% 29.85 in 10.0 mi Calm Calm - N/A   Clear
9:35 PM 68.0 °F - 62.6 °F 83% 29.86 in 10.0 mi Calm Calm - N/A   Clear
9:55 PM 68.0 °F - 60.8 °F 78% 29.87 in 10.0 mi West 3.5 mph - N/A   Clear
10:15 PM 68.0 °F - 60.8 °F 78% 29.88 in 10.0 mi West 4.6 mph - N/A   Clear
10:35 PM 68.0 °F - 60.8 °F 78% 29.88 in 10.0 mi West 4.6 mph - N/A   Clear
10:55 PM 69.8 °F - 60.8 °F 73% 29.89 in 10.0 mi West 4.6 mph - N/A   Clear
11:35 PM 68.0 °F - 60.8 °F 78% 29.90 in 10.0 mi WNW 3.5 mph - N/A   Clear
11:55 PM 69.8 °F - 60.8 °F 73% 29.90 in 10.0 mi NW 3.5 mph - N/A   Clear